[[{"header":{"parameterUnit":"m.s-1","parameterCategory":1,"la1":30.2991,"la2":30.254,"lo1":-89.0895,"lo2":-89.0444,"dy":0.0017,"dx":0.0017,"nx":28,"ny":28,"refTime":"2023-08-27T21:00:00:Z","depth":0,"parameterNumber":2,"parameterNumberName":"U-component_of_WINDS"},"data":[0,0,0,0,0,0,0,0,0,0,0,0,0,0,0,0,0,0,0,0,0,0,0,0,0,0,0,0,0,0,0,0,0,0,0,0,0,0,0,0,0,0,0,0,0,0,0,0,0,0,0,0,0,0,0,0,0,0,-0.5956,-0.5954,0,-0.5821,-0.582,-0.5818,-0.5768,-0.5768,-0.5769,-0.5769,-0.5628,-0.5624,-0.562,0,0,0,0,0,0,0,0,0,0,0,0,0,-0.6166,-0.6163,-0.5956,-0.5954,-0.5953,-0.5822,-0.582,-0.5818,-0.5768,-0.5768,-0.5769,-0.5769,-0.5629,-0.5624,-0.5619,0,0,0,0,0,0,0,0,0,0,0,0,0,-0.6058,-0.6162,-0.5956,-0.5912,-0.5907,-0.5822,-0.582,-0.5818,-0.5768,-0.5768,-0.5769,-0.577,-0.5631,-0.5625,-0.5618,-0.5567,0,0,-0.5599,-0.5597,0,0,0,0,0,0,0,0,-0.6064,-0.605,-0.592,-0.5915,-0.5909,-0.5812,-0.5842,-0.5733,-0.5768,-0.582,-0.5769,-0.577,-0.5688,-0.5677,-0.5651,-0.5561,-0.5554,-0.5599,-0.5595,-0.5592,-0.5591,0,0,0,0,0,0,0,-0.6072,-0.6056,-0.5903,-0.5918,-0.5911,-0.5898,-0.5883,-0.5821,-0.5752,-0.5816,-0.5812,-0.5797,-0.5685,-0.5657,-0.5647,-0.5552,-0.5599,-0.5593,-0.559,-0.5587,-0.5414,-0.5413,0,0,0,0,0,0,-0.6087,-0.6062,-0.5907,-0.5899,-0.599,-0.5894,-0.5877,-0.5842,-0.5753,-0.574,-0.5796,-0.5795,-0.5667,-0.5654,-0.5642,-0.5576,-0.5592,-0.5587,-0.5583,-0.5415,-0.5414,-0.5413,0,0,0,0,0,0,-0.6092,-0.6074,-0.5912,-0.5979,-0.5958,-0.5889,-0.5851,-0.5839,-0.5811,-0.5738,-0.5725,-0.578,-0.5667,-0.5651,-0.5586,-0.557,-0.5584,-0.5578,-0.5416,-0.5414,-0.5413,-0.5444,0,0,0,0,0,0,-0.6098,-0.6076,-0.6056,-0.5979,-0.5954,-0.586,-0.585,-0.5836,-0.5801,-0.5798,-0.5719,-0.5707,-0.5666,-0.5596,-0.558,-0.5562,-0.5573,-0.5417,-0.5415,-0.5414,-0.5444,-0.5444,-0.5443,0,0,0,0,0,-0.6106,-0.6069,-0.6055,-0.6037,-0.5929,-0.5859,-0.5845,-0.58,-0.58,-0.5779,-0.5732,-0.571,-0.5575,-0.559,-0.5572,-0.5551,-0.5418,-0.5416,-0.5414,-0.5444,-0.5444,-0.5443,0,0,0,0,0,0,-0.6144,-0.6058,-0.6042,-0.5979,-0.5927,-0.5851,-0.5823,-0.5801,-0.5747,-0.5746,-0.5691,-0.5674,-0.5614,-0.5576,-0.5594,-0.5497,-0.5495,-0.5489,-0.5524,-0.5523,-0.5523,-0.5533,-0.5568,0,0,0,0,0,-0.6145,-0.6097,-0.6025,-0.5976,-0.5951,-0.5892,-0.586,-0.583,-0.5773,-0.5751,-0.5699,-0.5644,-0.5589,-0.5554,-0.55,-0.5439,-0.5421,-0.5415,-0.5415,-0.5416,-0.5411,-0.5376,-0.5373,-0.5406,-0.5406,-0.5406,0,0,-0.6147,-0.6094,-0.6067,-0.5983,-0.5939,-0.589,-0.5874,-0.5822,-0.5784,-0.5742,-0.5679,-0.564,-0.5574,-0.5512,-0.5481,-0.5478,-0.5398,-0.5413,-0.5414,-0.5409,-0.5374,-0.5371,-0.5368,-0.5405,-0.5405,-0.5405,0,0,-0.6125,-0.6081,-0.6036,-0.5993,-0.5927,-0.5888,-0.5878,-0.5805,-0.5778,-0.5714,-0.5681,-0.5636,-0.5542,-0.5497,-0.5462,-0.5425,-0.5402,-0.5409,-0.5408,-0.5374,-0.5372,-0.5369,-0.5356,-0.5351,-0.5405,-0.5405,-0.5405,0,-0.6136,-0.6061,-0.6016,-0.5966,-0.593,-0.5891,-0.5845,-0.5805,-0.5725,-0.57,-0.5698,-0.5581,-0.5534,-0.5461,-0.5452,-0.5425,-0.5411,-0.5417,-0.5376,-0.5373,-0.537,-0.5356,-0.5351,-0.5406,-0.5406,-0.5406,-0.5406,0,-0.6077,-0.6026,-0.5997,-0.5922,-0.5883,-0.5835,-0.5782,-0.5748,-0.5722,-0.5683,-0.5618,-0.5561,-0.5495,-0.5475,-0.5449,-0.5398,-0.5398,-0.5387,-0.5383,-0.5369,-0.5355,-0.5349,-0.5408,-0.5408,-0.5407,-0.5407,0,0,-0.6073,-0.5976,-0.5966,-0.5931,-0.5857,-0.5816,-0.5767,-0.5703,-0.5675,-0.5621,-0.5577,-0.5501,-0.549,-0.545,-0.5418,-0.5389,-0.5364,-0.5381,-0.5379,-0.538,-0.5304,-0.5313,-0.5307,-0.5349,-0.5347,-0.5346,-0.5309,0,-0.6041,-0.5953,-0.5911,-0.5841,-0.5793,-0.5756,-0.5713,-0.5663,-0.5625,-0.5579,-0.5537,-0.5483,-0.5474,-0.545,-0.5419,-0.5373,-0.5348,-0.5375,-0.5307,-0.5305,-0.5324,-0.53,-0.5309,-0.5276,-0.5304,-0.5303,-0.5302,0,-0.5992,-0.594,-0.5865,-0.5797,-0.5775,-0.5737,-0.5676,-0.5632,-0.5574,-0.5549,-0.5506,-0.5475,-0.5422,-0.5423,-0.5348,-0.5368,-0.5337,-0.5311,-0.5308,-0.5299,-0.5302,-0.529,-0.5265,-0.526,-0.5293,-0.5294,-0.5295,0,-0.5997,-0.5908,-0.5851,-0.5823,-0.5743,-0.5717,-0.5682,-0.5624,-0.5589,-0.5536,-0.5512,-0.5453,-0.542,-0.5374,-0.5328,-0.5334,-0.5258,-0.5255,-0.5234,-0.5236,-0.5219,-0.522,-0.5188,-0.5201,-0.5201,-0.5201,-0.5201,0,-0.5964,-0.592,-0.5853,-0.5818,-0.5767,-0.572,-0.567,-0.5633,-0.5582,-0.5539,-0.5503,-0.5463,-0.5406,-0.5358,-0.5322,-0.5265,-0.5251,-0.5229,-0.5219,-0.5231,-0.5234,-0.521,-0.521,-0.52,-0.52,-0.52,-0.5201,0,-0.5961,-0.5914,-0.585,-0.578,-0.5761,-0.5727,-0.5666,-0.5631,-0.5593,-0.5538,-0.5523,-0.5462,-0.5405,-0.5355,-0.5279,-0.5255,-0.5196,-0.5185,-0.5216,-0.5211,-0.5193,-0.5195,-0.5143,-0.5134,-0.5154,-0.5154,-0.5154,0,-0.5943,-0.5908,-0.5835,-0.5804,-0.577,-0.5721,-0.5685,-0.5638,-0.5602,-0.5534,-0.5506,-0.5447,-0.5396,-0.5306,-0.5255,-0.5196,-0.5183,-0.5169,-0.5174,-0.5188,-0.5182,-0.5185,-0.5181,-0.5169,-0.5169,-0.5169,-0.5169,0,-0.5916,-0.5895,-0.5846,-0.5789,-0.5748,-0.57,-0.5651,-0.5628,-0.5571,-0.5533,-0.5475,-0.5436,-0.5359,-0.53,-0.5236,-0.5199,-0.5174,-0.5168,-0.516,-0.5172,-0.5191,-0.518,-0.5215,-0.5169,-0.5169,-0.5169,-0.5169,-0.5169,-0.5904,-0.5872,-0.5815,-0.5762,-0.5721,-0.5676,-0.564,-0.5598,-0.5549,-0.5484,-0.5459,-0.5399,-0.5342,-0.5254,-0.5217,-0.5169,-0.5165,-0.5154,-0.5151,-0.5148,-0.515,-0.52,-0.5158,-0.5157,-0.5157,-0.5157,-0.5157,0,-0.5875,-0.5838,-0.5789,-0.5723,-0.5681,-0.5663,-0.5609,-0.5574,-0.5523,-0.5473,-0.5424,-0.5358,-0.5301,-0.5246,-0.5186,-0.5158,-0.5145,-0.5144,-0.5145,-0.5137,-0.5157,-0.517,-0.5155,-0.5155,-0.5155,-0.5155,-0.5155,-0.5155,-0.5855,-0.58,-0.5772,-0.5696,-0.5658,-0.5601,-0.5571,-0.553,-0.5489,-0.5417,-0.537,-0.5335,-0.5283,-0.5219,-0.5166,-0.5151,-0.513,-0.5132,-0.5114,-0.5134,-0.5135,-0.5136,-0.5147,-0.5128,-0.5128,-0.5097,-0.5096,-0.5096]},{"header":{"parameterUnit":"m.s-1","parameterCategory":1,"la1":30.2991,"la2":30.254,"lo1":-89.0895,"lo2":-89.0444,"dy":0.0017,"dx":0.0017,"nx":28,"ny":28,"refTime":"2023-08-27T21:00:00:Z","depth":0,"parameterNumber":3,"parameterNumberName":"V-component_of_WINDS"},"data":[0,0,0,0,0,0,0,0,0,0,0,0,0,0,0,0,0,0,0,0,0,0,0,0,0,0,0,0,0,0,0,0,0,0,0,0,0,0,0,0,0,0,0,0,0,0,0,0,0,0,0,0,0,0,0,0,0,0,1.2545,1.2545,0,1.2563,1.2563,1.2563,1.2538,1.2538,1.2537,1.2536,1.2557,1.2558,1.256,0,0,0,0,0,0,0,0,0,0,0,0,0,1.2494,1.2495,1.2545,1.2545,1.2546,1.2563,1.2563,1.2563,1.2539,1.2537,1.2536,1.2535,1.2556,1.2558,1.256,0,0,0,0,0,0,0,0,0,0,0,0,0,1.2514,1.2495,1.2545,1.2535,1.2535,1.2563,1.2563,1.2563,1.2539,1.2537,1.2536,1.2535,1.2556,1.2558,1.256,1.26,0,0,1.2566,1.2567,0,0,0,0,0,0,0,0,1.2513,1.2516,1.2537,1.2536,1.2535,1.2547,1.2553,1.2576,1.2539,1.2537,1.2536,1.2534,1.2555,1.2557,1.2563,1.2601,1.2601,1.2567,1.2568,1.2569,1.2569,0,0,0,0,0,0,0,1.2512,1.2515,1.2552,1.2537,1.2536,1.2531,1.2533,1.2557,1.2554,1.2537,1.2536,1.2538,1.2554,1.2561,1.2564,1.2602,1.2567,1.2568,1.257,1.257,1.2673,1.2675,0,0,0,0,0,0,1.2511,1.2514,1.2552,1.2553,1.2521,1.2533,1.2535,1.2545,1.2553,1.2553,1.2539,1.2537,1.2558,1.2561,1.2564,1.2611,1.2569,1.2571,1.2572,1.2672,1.2674,1.2675,0,0,0,0,0,0,1.251,1.2514,1.2551,1.2533,1.2537,1.2535,1.2547,1.2546,1.2553,1.2554,1.2554,1.2547,1.2558,1.2561,1.2591,1.2612,1.2572,1.2574,1.267,1.2672,1.2674,1.2706,0,0,0,0,0,0,1.2509,1.2514,1.2528,1.2533,1.2538,1.2576,1.2548,1.2547,1.2556,1.2553,1.2561,1.2561,1.2557,1.2588,1.2593,1.2614,1.2575,1.2668,1.2671,1.2674,1.2703,1.2709,1.2714,0,0,0,0,0,1.2507,1.2537,1.2529,1.2534,1.2556,1.2578,1.2581,1.2574,1.2558,1.2573,1.2574,1.2561,1.2609,1.2591,1.2597,1.2619,1.2667,1.267,1.2673,1.2701,1.2708,1.2714,0,0,0,0,0,0,1.2536,1.2538,1.2529,1.2562,1.257,1.2573,1.2592,1.2581,1.2595,1.2592,1.2584,1.2586,1.2617,1.2621,1.2601,1.2658,1.2635,1.264,1.2654,1.2661,1.2666,1.2665,1.2577,0,0,0,0,0,1.2546,1.2562,1.2563,1.2592,1.2597,1.2594,1.2603,1.2597,1.2605,1.2609,1.2612,1.2621,1.2639,1.265,1.2666,1.2704,1.2706,1.2722,1.2727,1.2732,1.2736,1.2757,1.2764,1.2686,1.2686,1.2686,0,0,1.2567,1.257,1.2581,1.2598,1.2604,1.2622,1.2597,1.2617,1.2631,1.2612,1.264,1.2643,1.2653,1.2687,1.2702,1.2691,1.2758,1.2736,1.2739,1.2741,1.2761,1.2768,1.2775,1.2688,1.2688,1.2688,0,0,1.2615,1.2618,1.2643,1.2649,1.2657,1.2655,1.2661,1.2666,1.2667,1.2695,1.2682,1.2699,1.2728,1.2736,1.2744,1.2795,1.2785,1.2801,1.283,1.285,1.2856,1.2862,1.2881,1.2888,1.2805,1.2805,1.2805,0,1.264,1.2666,1.2657,1.2679,1.2687,1.267,1.2695,1.2702,1.2716,1.2722,1.2709,1.2746,1.2752,1.2788,1.28,1.2807,1.2814,1.28,1.2856,1.2861,1.2866,1.2884,1.2891,1.2807,1.2807,1.2806,1.2806,0,1.2697,1.2716,1.2735,1.2747,1.2758,1.2781,1.2777,1.2789,1.2782,1.2782,1.2811,1.2817,1.2834,1.2842,1.2836,1.2878,1.287,1.2857,1.2834,1.2876,1.2893,1.2899,1.281,1.2809,1.2808,1.2808,0,0,1.2764,1.2771,1.2778,1.2784,1.2792,1.2807,1.283,1.2845,1.2856,1.2866,1.2886,1.2912,1.2899,1.2908,1.2903,1.2921,1.2962,1.2906,1.2906,1.2916,1.3009,1.3019,1.3027,1.2955,1.2957,1.2958,1.3008,0,1.2812,1.285,1.2843,1.2881,1.2899,1.2883,1.2904,1.2912,1.2912,1.2928,1.2929,1.2947,1.2929,1.2935,1.2952,1.2954,1.2981,1.295,1.2975,1.2976,1.2973,1.3036,1.3047,1.3095,1.3015,1.3016,1.3017,0,1.2873,1.2884,1.2924,1.2929,1.2937,1.2955,1.2969,1.2984,1.2993,1.2992,1.3002,1.2994,1.3018,1.2995,1.3029,1.3008,1.3018,1.3021,1.3023,1.3025,1.2999,1.3041,1.311,1.3117,1.3027,1.3026,1.3025,0,1.2917,1.2943,1.297,1.2975,1.2983,1.2996,1.3,1.3007,1.3018,1.303,1.3037,1.3053,1.3062,1.3075,1.3072,1.3055,1.3107,1.3083,1.3108,1.3108,1.3119,1.3119,1.3192,1.3125,1.3125,1.3125,1.3125,0,1.2972,1.2997,1.299,1.3007,1.3035,1.3027,1.3055,1.3058,1.3065,1.3083,1.3071,1.3088,1.3082,1.31,1.3097,1.3126,1.313,1.3131,1.313,1.3132,1.3132,1.3139,1.3136,1.3127,1.3127,1.3126,1.3126,0,1.3026,1.3023,1.3051,1.3056,1.3058,1.3078,1.3083,1.3099,1.3099,1.3121,1.3126,1.3126,1.3146,1.3144,1.3166,1.3165,1.3201,1.3196,1.3198,1.3197,1.3222,1.3219,1.3301,1.3312,1.3238,1.3239,1.324,0,1.3061,1.308,1.3087,1.3097,1.3102,1.3119,1.3129,1.3123,1.3134,1.3146,1.3161,1.318,1.3194,1.3227,1.3229,1.3247,1.3242,1.327,1.3245,1.3247,1.3244,1.3243,1.3245,1.3275,1.3276,1.3276,1.3277,0,1.3124,1.3121,1.3136,1.315,1.3162,1.3173,1.3183,1.3193,1.3188,1.3201,1.3221,1.3232,1.3255,1.3274,1.329,1.3295,1.3286,1.3285,1.3291,1.3294,1.3294,1.3295,1.3212,1.3283,1.3282,1.3282,1.3282,1.3281,1.317,1.3186,1.3193,1.321,1.3217,1.3227,1.3242,1.3244,1.326,1.3277,1.3272,1.3295,1.3305,1.3326,1.3333,1.3351,1.3341,1.3351,1.3353,1.3356,1.3359,1.3291,1.3354,1.3354,1.3354,1.3353,1.3353,0,1.3233,1.3236,1.3252,1.3266,1.328,1.3268,1.3279,1.3291,1.3311,1.332,1.3334,1.3358,1.3376,1.338,1.3398,1.3412,1.3408,1.3417,1.3416,1.3418,1.3366,1.3359,1.342,1.342,1.342,1.342,1.342,1.342,1.3267,1.3294,1.3292,1.3323,1.3327,1.3348,1.3355,1.3364,1.3372,1.3398,1.3413,1.3415,1.3423,1.3441,1.3458,1.3459,1.3466,1.3477,1.3476,1.3428,1.3421,1.3415,1.3408,1.3478,1.3479,1.3526,1.3527,1.3527]}]]